Showing default

TANAGER 4001, 60507

Orbit data source: Space-Track

TANAGER 4001, 60507 is a payload satellite owned by Planet (US) in SSO that was launched on Fri, 16 Aug 2024 UTC via an FALCON 9 launch vehicle from the Air Force Western Test Range (AFWTR). Payload-class satellites include a variety of spacecraft equipped with specific instruments for various scientific and technological missions. These include communications satellites like Starlink; space stations such as the ISS; scientific satellites like the Hubble; Earth observation satellites from companies like Planet Labs, Umbra, and HawkEye 360; GPS; miniature CubeSats for education and research; and military/defense satellites.

Loading next visibility...
Identifier
60507, 2024-149AR
Orbit
SSO
Country
Flag of USUS
Related business
Manufacturer
Planet
Mission
Operational Commercial Earth Obs Sci
Bus & Motor
TANAGER, Unknown motor
Mass
~150 kg wet, ~140 kg dry
Launch date (UTC)
2024-08-16 (1 year ago)
Launch vehicle
FALCON 9
Launch site
Air Force Western Test Range (AFWTR)
Object type
Payload
Rocket body
Debris
Shape & HBR
Box + 2 Pan, 1.0 m
Radar Cross Section
1.955 m², Medium (>0.1 m² and < 1m²)

Expand to show TLE details & history
Last TLE update: 1 day ago

TLE from 1 day ago
0 TANAGER 4001
1 60507U 24149AR  25299.24469431  .00000784  00000-0  19343-4 0  9991
2 60507  97.3888  25.5997 0010027 232.5134 127.5203 15.43673530 66942
Epoch: 2025-10-26T05:52Z
TLE epoch observation values (Epoch: 2025-10-26T05:52:21.588Z)
Latitude
-0.00001°
Longitude
-97.35392°
Altitude
442.567 km
Speed
7.644 km/s
True Right ascension
01h 42m 23s
True Declination
0° 00' 00"
Sunlit
Object was in full shadow at epoch
Visualization orbit readout
Latitude
Unknown
Longitude
Unknown
Altitude
Unknown
Speed
Unknown
Apparent Right ascension
Unknown
Apparent Declination
Unknown
Sunlit
N/A
Visualization observer readout
Local Sidereal Time
13:15:29
Azimuth
Unknown
Elevation
Unknown
Doppler factor
Unknown
Orbital elements
Apogee altitude
439.041 km
Perigee altitude
425.383 km
Semi-major axis
6,810.349 km
Eccentricity
0.001
Inclination
97.3888°
RAAN
25.5997°
Arg. of periapsis
232.5134°
True anomaly
127.61136°
Mean anomaly
127.5203°
Eccentric anomaly
127.56584°
Mean motion
3.86179 °/min
Orbital period
93.22 mins
BSTAR
0.000019343
Loading maneuver chart data...
Computing Atmospheric mass density...
Loading historical data...
Loading historical data...
Loading historical data...
Loading historical data...
Loading historical data...
Loading historical data...
Loading historical data...

Documentation

Showing up to 5 results
|